Regional Weather Roundup
Issued by NWS

Home | Current Version | Previous Version | Text Only | Print | Product List | Glossary Off
Versions: 1 2 3 4 5 6 7 8 9 10 11 12 13 14 15 16 17 18 19 20 21 22 23 24 25 26 27 28 29 30 31 32 33 34 35 36 37 38 39 40 41 42 43 44 45 46 47 48 49 50

000
ASUS43 KDMX 200401
RWRIA

WEATHER ROUNDUP FOR IOWA
NATIONAL WEATHER SERVICE DES MOINES IA
1100 PM CDT THU OCT 19 2017

NOTE: "FAIR" INDICATES FEW OR NO CLOUDS BELOW 12,000 FEET WITH NO
SIGNIFICANT WEATHER AND/OR OBSTRUCTIONS TO VISIBILITY.

* - THESE STATIONS ARE NOT NWS STATIONS...THUS NOT UNDER NWS
QUALITY CONTROL.  THEY ALSO DO NOT REPORT WEATHER SUCH
AS PRECIPITATION OR FOG.

IAZ001>003-012>014-020>022-031>034-043>046-200500-
   NORTHWEST IOWA

CITY           SKY/WX    TMP DP  RH WIND       PRES   REMARKS
CARROLL *        N/A     72  70  94 S10       29.98S
CHEROKEE *       N/A     57  52  85 S10       29.95S
DENISON *        N/A     64  52  63 S14       29.98F
LE MARS *        N/A     61  52  72 S6        29.92S
ORANGE CITY *    N/A     63  55  77 S8        29.93R
SHELDON *        N/A     57  50  77 S7        29.91S
SIOUX CITY       N/A     61  53  75 SE9       29.93S
SPENCER          N/A     58  51  78 S10       29.94F
STORM LAKE *     N/A     55  50  82 S10       29.96S
$$

IAZ055>058-069>071-079>083-090>094-200500-
   SOUTHWEST IOWA

CITY           SKY/WX    TMP DP  RH WIND       PRES   REMARKS
ATLANTIC *       N/A     59  52  77 S7        30.00S
AUDUBON *        N/A     52  48  87 CALM      30.01S
CLARINDA *       N/A     59  52  77 S7        30.04S
COUNCIL BLFS *   N/A     64  52  63 S13G18    29.98S
CRESTON *        N/A     61  52  72 S12       30.05S
HARLAN  *        N/A     61  52  72 S7        30.02S
LAMONI           N/A     63  52  67 S12       30.06R
RED OAK *        N/A     61  52  72 S5        30.01S
SHENANDOAH *     N/A     64  52  63 S12G18    30.01S
$$

IAZ047>049-059>061-072>074-084-200500-
   CENTRAL IOWA

CITY           SKY/WX    TMP DP  RH WIND       PRES   REMARKS
AMES             N/A     55  53  93 S8        30.02S
ANKENY *         N/A     59  52  77 S5        30.04S
BOONE *          N/A     57  52  82 S7        30.01S
CHARITON *       N/A     59  52  77 S8        30.05S
DES MOINES       N/A     61  52  72 S10       30.02F
KNOXVILLE *      N/A     61  50  67 S6        30.03F
MARSHALLTOWN     N/A     61  53  75 S10       30.03S
NEWTON *         N/A     57  52  82 S8        30.04F
PELLA *          N/A     60  52  75 S5        30.06S
PERRY *          N/A     56  53  91 S7        30.01S
$$

IAZ004>006-015-016-023>025-035-036-200500-
   NORTH CENTRAL IOWA

CITY           SKY/WX    TMP DP  RH WIND       PRES   REMARKS
ALGONA *         N/A     61  54  77 S15       29.97S
CLARION *        N/A     63  54  72 S14       29.99F
ESTHERVILLE      N/A     54  51  90 S8        29.94F
FORT DODGE *     N/A     63  53  70 S13       29.99S
MASON CITY       N/A     52  46  80 SE8       30.02S
FOREST CITY *    N/A     54  50  87 SE8       29.99F
WEBSTER CITY *   N/A     59  52  77 S8        29.98F
IOWA FALLS *     N/A     58  53  83 SE8       30.03S
$$

IAZ007>011-017>019-026>030-037>042-050>054-066-200500-
   NORTHEAST IOWA

CITY           SKY/WX    TMP DP  RH WIND       PRES   REMARKS
CEDAR RAPIDS     N/A     59  52  77 S7        30.06S
CHARLES CITY *   N/A     57  46  67 SE9       30.03S
CLINTON *        N/A     57  50  77 SE6       30.11S
DECORAH *        N/A     57  41  54 S8        30.04S
DUBUQUE          N/A     55  45  68 S9        30.09S
MONTICELLO *     N/A     57  48  72 SE6       30.07S
OELWEIN *        N/A     55  48  76 S10       30.05S
WATERLOO         N/A     58  50  75 S9        30.03S
$$

IAZ064-065-067-068-078-200500-
   EAST CENTRAL IOWA

CITY           SKY/WX    TMP DP  RH WIND       PRES   REMARKS
DAVENPORT        N/A     59  51  75 S8        30.12S
IOWA CITY        N/A     58  52  80 CALM      30.09S
MUSCATINE *      N/A     54  50  87 CALM      30.09S
QUAD CITIES      N/A     60  50  69 CALM      30.10S
$$

IAZ062-063-075>077-085>089-095>099-200500-
   SOUTHEAST IOWA

CITY           SKY/WX    TMP DP  RH WIND       PRES   REMARKS
BURLINGTON       N/A     62  52  69 S8        30.10S
FAIRFIELD *      N/A     61  50  67 S9        30.07S
FORT MADISON *   N/A     63  52  67 S8        30.11S
KEOKUK *         N/A     63  50  63 S6        30.10S
OSKALOOSA *      N/A     55  50  84 S9        30.06F
OTTUMWA          N/A     60  51  72 S9        30.06S
WASHINGTON *     N/A     63  52  67 S9        30.09S
$$

ABBREVIATIONS USED IN REMARKS
   TC - TEMPERATURES IN CELSIUS
  WCI - WIND CHILL INDEX
   HX - HEAT INDEX
  VSB - VISIBILITY
$$





USA.gov is the U.S. government's official web portal to all federal, state and local government web resources and services.